When you browse on this site, cookies collect data to enhance your experience and personalize the content and advertising you see.
Visit our Privacy Policy to learn more. By continuing to use the site, you agree to this use of cookies and data.

Meteo orario Halytsya

Oggi, 12 Agosto, Mercoledi

Tempo Temperatura Precipitazioni Vento Pressione Umidità
00:00 +20°C° 0 mm 1 m/s 746 mm Hg 82%
01:00 +19°C° 0 mm 2 m/s 746 mm Hg 83%
02:00 +18°C° 0 mm 2 m/s 746 mm Hg 85%
03:00 +18°C° 0.1 mm 2 m/s 746 mm Hg 88%
04:00 +17°C° 0.1 mm 2 m/s 746 mm Hg 90%
05:00 +17°C° 0.1 mm 2 m/s 747 mm Hg 93%
06:00 +18°C° 0 mm 3 m/s 747 mm Hg 89%
07:00 +19°C° 0 mm 3 m/s 747 mm Hg 85%
08:00 +21°C° 0 mm 3 m/s 747 mm Hg 81%
09:00 +22°C° 0.1 mm 4 m/s 747 mm Hg 75%
10:00 +23°C° 0.1 mm 5 m/s 747 mm Hg 69%
11:00 +25°C° 0.1 mm 5 m/s 748 mm Hg 63%
12:00 +25°C° 0 mm 5 m/s 748 mm Hg 60%
13:00 +26°C° 0 mm 5 m/s 748 mm Hg 56%
14:00 +26°C° 0 mm 5 m/s 748 mm Hg 53%
15:00 +25°C° 0 mm 5 m/s 748 mm Hg 53%
16:00 +25°C° 0 mm 5 m/s 748 mm Hg 54%
17:00 +23°C° 0 mm 5 m/s 748 mm Hg 54%
18:00 +21°C° 0 mm 4 m/s 748 mm Hg 60%
19:00 +19°C° 0 mm 3 m/s 748 mm Hg 66%
20:00 +18°C° 0 mm 3 m/s 749 mm Hg 71%
21:00 +17°C° 0 mm 2 m/s 749 mm Hg 73%
22:00 +16°C° 0 mm 2 m/s 749 mm Hg 75%
23:00 +15°C° 0 mm 2 m/s 749 mm Hg 77%

Domani, 13 Agosto, Giovedi

Tempo Temperatura Precipitazioni Vento Pressione Umidità
00:00 +15°C° 0 mm 1 m/s 749 mm Hg 79%
01:00 +14°C° 0 mm 1 m/s 749 mm Hg 81%
02:00 +14°C° 0 mm 1 m/s 749 mm Hg 83%
03:00 +14°C° 0 mm 1 m/s 749 mm Hg 84%
04:00 +13°C° 0 mm 1 m/s 749 mm Hg 85%
05:00 +13°C° 0 mm 1 m/s 749 mm Hg 86%
06:00 +15°C° 0 mm 1 m/s 749 mm Hg 79%
07:00 +16°C° 0 mm 1 m/s 749 mm Hg 72%
08:00 +19°C° 0 mm 1 m/s 749 mm Hg 65%
09:00 +20°C° 0 mm 1 m/s 749 mm Hg 60%
10:00 +22°C° 0 mm 1 m/s 749 mm Hg 55%
11:00 +23°C° 0 mm 2 m/s 749 mm Hg 50%
12:00 +24°C° 0 mm 2 m/s 749 mm Hg 47%
13:00 +25°C° 0 mm 2 m/s 748 mm Hg 44%
14:00 +25°C° 0 mm 2 m/s 748 mm Hg 41%
15:00 +25°C° 0 mm 2 m/s 748 mm Hg 41%
16:00 +25°C° 0 mm 2 m/s 747 mm Hg 42%
17:00 +25°C° 0 mm 2 m/s 747 mm Hg 42%
18:00 +23°C° 0 mm 2 m/s 747 mm Hg 49%
19:00 +20°C° 0 mm 2 m/s 747 mm Hg 55%
20:00 +18°C° 0 mm 2 m/s 747 mm Hg 62%
21:00 +17°C° 0 mm 2 m/s 747 mm Hg 65%
22:00 +16°C° 0 mm 2 m/s 747 mm Hg 68%
23:00 +16°C° 0 mm 2 m/s 748 mm Hg 71%

Dopodomani, 14 Agosto, Venerdi

Tempo Temperatura Precipitazioni Vento Pressione Umidità
00:00 +15°C° 0 mm 2 m/s 748 mm Hg 73%
01:00 +15°C° 0 mm 2 m/s 747 mm Hg 75%
02:00 +14°C° 0 mm 2 m/s 747 mm Hg 77%
03:00 +14°C° 0 mm 2 m/s 747 mm Hg 78%
04:00 +13°C° 0 mm 1 m/s 747 mm Hg 79%
05:00 +13°C° 0 mm 1 m/s 747 mm Hg 80%
06:00 +15°C° 0 mm 2 m/s 747 mm Hg 74%
07:00 +17°C° 0 mm 2 m/s 747 mm Hg 67%
08:00 +19°C° 0 mm 2 m/s 747 mm Hg 61%
09:00 +20°C° 0 mm 2 m/s 747 mm Hg 56%
10:00 +23°C° 0 mm 2 m/s 747 mm Hg 51%
11:00 +24°C° 0 mm 2 m/s 747 mm Hg 46%
12:00 +25°C° 0 mm 2 m/s 747 mm Hg 43%
13:00 +26°C° 0 mm 2 m/s 747 mm Hg 41%
14:00 +27°C° 0 mm 2 m/s 746 mm Hg 38%
15:00 +27°C° 0 mm 2 m/s 746 mm Hg 39%
16:00 +27°C° 0 mm 2 m/s 746 mm Hg 39%
17:00 +27°C° 0 mm 3 m/s 746 mm Hg 40%
18:00 +24°C° 0 mm 3 m/s 746 mm Hg 47%
19:00 +21°C° 0 mm 4 m/s 746 mm Hg 55%
20:00 +19°C° 0 mm 4 m/s 746 mm Hg 62%
21:00 +17°C° 0 mm 5 m/s 747 mm Hg 62%
22:00 +17°C° 0 mm 5 m/s 747 mm Hg 62%
23:00 +16°C° 0 mm 5 m/s 747 mm Hg 62%

15 Agosto, Sabato

Tempo Temperatura Precipitazioni Vento Pressione Umidità
00:00 +16°C° 0 mm 5 m/s 747 mm Hg 63%
01:00 +15°C° 0 mm 5 m/s 747 mm Hg 64%
02:00 +15°C° 0 mm 5 m/s 747 mm Hg 64%
03:00 +15°C° 0 mm 5 m/s 747 mm Hg 65%
04:00 +14°C° 0 mm 5 m/s 747 mm Hg 66%
05:00 +14°C° 0 mm 5 m/s 747 mm Hg 66%
06:00 +15°C° 0 mm 6 m/s 747 mm Hg 63%
07:00 +16°C° 0 mm 6 m/s 747 mm Hg 60%
08:00 +17°C° 0 mm 6 m/s 747 mm Hg 57%
09:00 +19°C° 0.1 mm 6 m/s 747 mm Hg 56%
10:00 +20°C° 0.1 mm 5 m/s 747 mm Hg 55%
11:00 +20°C° 0.1 mm 5 m/s 747 mm Hg 54%
12:00 +19°C° 1 mm 4 m/s 747 mm Hg 63%
13:00 +18°C° 1 mm 4 m/s 747 mm Hg 71%
14:00 +17°C° 1 mm 4 m/s 747 mm Hg 79%
15:00 +17°C° 1.1 mm 4 m/s 747 mm Hg 81%
16:00 +17°C° 1.1 mm 4 m/s 747 mm Hg 83%
17:00 +17°C° 1.1 mm 3 m/s 747 mm Hg 85%
18:00 +16°C° 0.8 mm 3 m/s 747 mm Hg 87%
19:00 +16°C° 0.8 mm 2 m/s 747 mm Hg 89%
20:00 +16°C° 0.8 mm 1 m/s 747 mm Hg 91%
21:00 +16°C° 0.2 mm 1 m/s 748 mm Hg 91%
22:00 +16°C° 0.2 mm 1 m/s 748 mm Hg 91%
23:00 +15°C° 0.2 mm 1 m/s 748 mm Hg 90%

16 Agosto, Domenica

Tempo Temperatura Precipitazioni Vento Pressione Umidità
00:00 +15°C° 0.1 mm 1 m/s 748 mm Hg 91%
01:00 +15°C° 0.1 mm 1 m/s 748 mm Hg 92%
02:00 +14°C° 0.1 mm 1 m/s 748 mm Hg 92%
03:00 +14°C° 0 mm 2 m/s 748 mm Hg 91%
04:00 +13°C° 0 mm 2 m/s 748 mm Hg 90%
05:00 +12°C° 0 mm 3 m/s 748 mm Hg 89%
06:00 +13°C° 0 mm 3 m/s 748 mm Hg 81%
07:00 +15°C° 0 mm 4 m/s 749 mm Hg 74%
08:00 +17°C° 0 mm 4 m/s 749 mm Hg 66%
09:00 +19°C° 0 mm 4 m/s 749 mm Hg 58%
10:00 +21°C° 0 mm 4 m/s 749 mm Hg 51%
11:00 +23°C° 0 mm 4 m/s 750 mm Hg 44%
12:00 +23°C° 0 mm 4 m/s 750 mm Hg 41%
13:00 +25°C° 0 mm 4 m/s 749 mm Hg 38%
14:00 +26°C° 0 mm 3 m/s 749 mm Hg 35%
15:00 +26°C° 0 mm 3 m/s 749 mm Hg 36%
16:00 +26°C° 0 mm 3 m/s 749 mm Hg 37%
17:00 +25°C° 0 mm 3 m/s 749 mm Hg 37%
18:00 +22°C° 0 mm 3 m/s 749 mm Hg 42%
19:00 +20°C° 0 mm 3 m/s 749 mm Hg 47%
20:00 +18°C° 0 mm 3 m/s 749 mm Hg 52%
21:00 +17°C° 0 mm 2 m/s 749 mm Hg 54%
22:00 +17°C° 0 mm 2 m/s 749 mm Hg 55%
23:00 +16°C° 0 mm 2 m/s 750 mm Hg 57%

17 Agosto, Lunedi

Tempo Temperatura Precipitazioni Vento Pressione Umidità
00:00 +15°C° 0 mm 2 m/s 750 mm Hg 60%
01:00 +15°C° 0 mm 2 m/s 750 mm Hg 62%
02:00 +14°C° 0 mm 2 m/s 750 mm Hg 65%
03:00 +14°C° 0 mm 2 m/s 750 mm Hg 67%
04:00 +14°C° 0 mm 2 m/s 750 mm Hg 68%
05:00 +14°C° 0 mm 2 m/s 750 mm Hg 70%
06:00 +16°C° 0 mm 2 m/s 750 mm Hg 65%
07:00 +18°C° 0 mm 2 m/s 750 mm Hg 60%
08:00 +19°C° 0 mm 2 m/s 750 mm Hg 55%
09:00 +21°C° 0 mm 2 m/s 750 mm Hg 50%
10:00 +24°C° 0 mm 2 m/s 750 mm Hg 46%
11:00 +25°C° 0 mm 2 m/s 750 mm Hg 41%
12:00 +26°C° 0 mm 2 m/s 750 mm Hg 39%
13:00 +27°C° 0 mm 2 m/s 749 mm Hg 38%
14:00 +27°C° 0 mm 2 m/s 749 mm Hg 37%
15:00 +27°C° 0 mm 2 m/s 749 mm Hg 38%
16:00 +27°C° 0 mm 2 m/s 749 mm Hg 39%
17:00 +27°C° 0 mm 2 m/s 748 mm Hg 40%
18:00 +25°C° 0 mm 1 m/s 748 mm Hg 46%
19:00 +22°C° 0 mm 1 m/s 748 mm Hg 53%
20:00 +20°C° 0 mm 1 m/s 748 mm Hg 59%
21:00 +20°C° 0 mm 1 m/s 748 mm Hg 60%
22:00 +19°C° 0 mm 1 m/s 748 mm Hg 61%
23:00 +19°C° 0 mm 1 m/s 748 mm Hg 63%
Mostrare altro